FW2834 Weather Reports


Display with metric or nautical units.
time (UTC)temp
F
wind
direction
speed
MPH
gust
MPH
rain 1hr
in
rain 24hr
in
rain mn
in
humidity
%
barometer
mb
20201023024627 64 199 0.0 0.0 0.00 0.00 0.00 85 1018.6
20201023024046 64 199 0.0 0.0 0.00 0.00 0.00 85 1018.7
20201023023617 64 199 0.0 0.0 0.00 0.00 0.00 85 1018.7
20201023023107 64 199 0.0 0.0 0.00 0.00 0.00 85 1018.7
20201023022611 64 199 0.0 0.0 0.00 0.00 0.00 85 1018.7
20201023022041 64 199 0.0 0.0 0.00 0.00 0.00 85 1018.7
20201023021624 64 199 0.0 0.0 0.00 0.00 0.00 84 1018.8
20201023021049 64 199 0.0 0.0 0.00 0.00 0.00 84 1018.8
20201023020546 64 199 0.0 0.0 0.00 0.00 0.00 84 1018.8
20201023020130 64 199 0.0 0.0 0.00 0.00 0.00 84 1018.8
20201023015540 65 199 0.0 0.0 0.00 0.00 0.00 84 1018.9
20201023015040 65 199 0.0 0.0 0.00 0.00 0.00 84 1018.9
20201023014622 65 199 0.0 0.0 0.00 0.00 0.00 84 1018.9
20201023014049 65 199 0.0 0.0 0.00 0.00 0.00 84 1019.0
20201023013600 65 199 0.0 0.0 0.00 0.00 0.00 84 1019.0
20201023013140 65 199 0.0 0.0 0.00 0.00 0.00 83 1019.0
20201023012538 65 199 0.0 0.0 0.00 0.00 0.00 83 1019.0
20201023012039 65 199 0.0 1.0 0.00 0.00 0.00 83 1019.1
20201023011708 65 199 0.0 1.0 0.00 0.00 0.00 83 1019.1
20201023011042 66 199 0.0 1.0 0.00 0.00 0.00 83 1019.1
20201023010546 66 199 0.0 1.0 0.00 0.00 0.00 83 1019.1
20201023010057 66 199 0.0 1.0 0.00 0.00 0.00 82 1019.1
20201023005549 66 199 0.0 0.0 0.00 0.00 0.00 82 1019.1
20201023005041 66 199 0.0 1.0 0.00 0.00 0.00 82 1019.1
20201023004543 67 199 0.0 1.0 0.00 0.00 0.00 82 1019.1
20201023004037 67 199 0.0 0.0 0.00 0.00 0.00 82 1019.1
20201023003535 67 199 0.0 0.0 0.00 0.00 0.00 82 1019.1
20201023003050 67 199 0.0 0.0 0.00 0.00 0.00 81 1019.1
20201023002535 67 199 0.0 0.0 0.00 0.00 0.00 81 1019.1
20201023002037 68 199 0.0 0.0 0.00 0.00 0.00 81 1019.1
20201023001627 68 199 0.0 0.0 0.00 0.00 0.00 81 1019.1
20201023001048 68 199 0.0 0.0 0.00 0.00 0.00 80 1019.1
20201023000534 69 199 0.0 0.0 0.00 0.00 0.00 80 1019.0
20201023000136 69 199 0.0 0.0 0.00 0.00 0.00 80 1019.0
20201022235539 69 199 0.0 0.0 0.00 0.00 0.00 80 1018.9
20201022235038 69 199 0.0 0.0 0.00 0.00 0.00 79 1018.9
20201022234618 70 199 0.0 0.0 0.00 0.00 0.00 79 1019.0
20201022234044 70 199 0.0 0.0 0.00 0.00 0.00 78 1018.9
20201022233535 71 199 0.0 0.0 0.00 0.00 0.00 78 1018.9
20201022233118 71 199 0.0 0.0 0.00 0.00 0.00 78 1018.9
20201022232536 71 199 0.0 0.0 0.00 0.00 0.00 77 1018.8
20201022232036 72 199 0.0 0.0 0.00 0.00 0.00 77 1018.7
20201022231550 72 199 0.0 0.0 0.00 0.00 0.00 77 1018.8
20201022231034 72 199 0.0 0.0 0.00 0.00 0.00 76 1018.7
20201022230545 73 199 0.0 0.0 0.00 0.00 0.00 76 1018.7
20201022230116 73 199 0.0 0.0 0.00 0.00 0.00 75 1018.8
20201022225545 73 199 0.0 0.0 0.00 0.00 0.00 75 1018.7
20201022225034 74 199 0.0 0.0 0.00 0.00 0.00 75 1018.9
20201022224613 74 199 0.0 0.0 0.00 0.00 0.00 74 1018.9
20201022224038 74 199 0.0 0.0 0.00 0.00 0.00 74 1018.9
20201022223531 75 199 0.0 0.0 0.00 0.00 0.00 73 1018.9
20201022223120 75 199 0.0 0.0 0.00 0.00 0.00 73 1018.9
20201022222531 75 199 0.0 0.0 0.00 0.00 0.00 72 1019.0
20201022222107 75 199 0.0 0.0 0.00 0.00 0.00 72 1019.0
20201022221625 76 199 0.0 0.0 0.00 0.00 0.00 72 1018.9
20201022221045 76 199 0.0 0.0 0.00 0.00 0.00 71 1018.9
20201022220547 76 199 0.0 4.0 0.00 0.00 0.00 71 1018.9
20201022220120 76 199 0.0 4.0 0.00 0.00 0.00 71 1018.9
20201022215033 77 182 0.0 2.0 0.00 0.00 0.00 70 1018.9
20201022214614 77 182 0.0 6.0 0.00 0.00 0.00 70 1018.9
20201022214030 77 239 1.0 6.0 0.00 0.00 0.00 70 1018.9
20201022213529 77 242 0.0 6.0 0.00 0.00 0.00 70 1018.9
20201022213038 77 195 3.0 6.0 0.00 0.00 0.00 70 1018.8
20201022212529 77 232 0.0 6.0 0.00 0.00 0.00 70 1018.8
20201022212031 77 285 3.0 8.0 0.00 0.00 0.00 70 1018.7
20201022211552 77 176 2.0 8.0 0.00 0.00 0.00 69 1018.7
20201022211031 77 257 1.0 7.0 0.00 0.00 0.00 70 1018.7
20201022210529 77 228 2.0 8.0 0.00 0.00 0.00 69 1018.8
20201022210054 77 211 5.0 9.0 0.00 0.00 0.00 70 1018.8
20201022205528 77 205 1.0 7.0 0.00 0.00 0.00 71 1018.8
20201022205029 77 189 2.0 7.0 0.00 0.00 0.00 71 1018.9
20201022204557 77 229 2.0 7.0 0.00 0.00 0.00 71 1018.9
20201022204027 76 231 0.0 9.0 0.00 0.00 0.00 71 1018.7
20201022203552 77 208 4.0 9.0 0.00 0.00 0.00 72 1018.8
20201022203051 77 221 3.0 9.0 0.00 0.00 0.00 71 1018.8
20201022202526 77 288 3.0 10.0 0.00 0.00 0.00 70 1018.8
20201022202029 77 217 4.0 10.0 0.00 0.00 0.00 70 1018.7
20201022201603 77 168 1.0 7.0 0.00 0.00 0.00 71 1018.6
20201022201025 77 134 2.0 7.0 0.00 0.00 0.00 71 1018.7
20201022200527 76 236 1.0 7.0 0.00 0.00 0.00 72 1018.7
20201022200113 76 248 2.0 6.0 0.00 0.00 0.00 71 1018.8
20201022195526 77 207 2.0 5.0 0.00 0.00 0.00 71 1018.7
20201022195032 77 207 2.0 5.0 0.00 0.00 0.00 71 1018.9
20201022194545 77 197 2.0 8.0 0.00 0.00 0.00 72 1018.8
20201022194025 77 247 1.0 10.0 0.00 0.00 0.00 71 1019.0
20201022193532 77 246 2.0 10.0 0.00 0.00 0.00 73 1019.0
20201022193032 77 217 2.0 10.0 0.00 0.00 0.00 72 1019.1
20201022192529 77 213 3.0 10.0 0.00 0.00 0.00 71 1019.2
20201022192028 77 153 5.0 10.0 0.00 0.00 0.00 71 1019.2
20201022191559 77 241 1.0 10.0 0.00 0.00 0.00 73 1019.3
20201022191042 77 326 4.0 9.0 0.00 0.00 0.00 74 1019.4
20201022190520 76 240 3.0 8.0 0.00 0.00 0.00 74 1019.5
20201022190027 76 232 2.0 8.0 0.00 0.00 0.00 75 1019.5
20201022185517 76 242 1.0 9.0 0.00 0.01 0.00 75 1019.5
20201022185025 77 202 2.0 7.0 0.00 0.01 0.00 73 1019.6
20201022184529 76 240 3.0 7.0 0.00 0.01 0.00 72 1019.6
20201022184016 76 257 2.0 11.0 0.00 0.01 0.00 73 1019.8
20201022183533 76 247 4.0 15.0 0.00 0.01 0.00 73 1019.8
20201022183118 76 222 3.0 15.0 0.00 0.01 0.00 73 1019.8
20201022182522 76 248 2.0 7.0 0.00 0.01 0.00 74 1019.7
20201022182314 76 236 3.0 10.0 0.00 0.01 0.00 74 1020.0
20201022181016 76 191 3.0 10.0 0.00 0.01 0.00 74 1020.0
20201022180520 75 213 3.0 11.0 0.00 0.01 0.00 75 1020.1
20201022180021 75 221 6.0 11.0 0.00 0.01 0.00 75 1020.1
20201022175513 75 229 0.0 8.0 0.00 0.01 0.00 77 1020.3
20201022175020 75 257 2.0 8.0 0.00 0.01 0.00 77 1020.4
20201022174526 75 209 0.0 1.0 0.00 0.01 0.00 76 1020.5
20201022174007 76 243 0.0 5.0 0.00 0.01 0.00 77 1020.6
20201022173517 76 259 0.0 5.0 0.00 0.01 0.00 78 1020.7
20201022173019 75 237 0.0 2.0 0.00 0.01 0.00 76 1020.8
20201022172629 75 216 0.0 2.0 0.00 0.01 0.00 77 1020.8
20201022172110 74 299 0.0 4.0 0.00 0.01 0.00 79 1021.1
20201022171707 74 205 0.0 8.0 0.00 0.01 0.00 78 1021.1
20201022171104 74 261 0.0 8.0 0.00 0.01 0.00 78 1021.3
20201022170611 74 244 2.0 6.0 0.00 0.01 0.00 79 1021.3
20201022170202 74 261 1.0 7.0 0.00 0.01 0.00 79 1021.5
20201022165609 74 215 2.0 9.0 0.00 0.01 0.00 78 1021.5
20201022165057 74 232 3.0 9.0 0.00 0.01 0.00 79 1021.5
20201022164629 73 275 1.0 5.0 0.00 0.01 0.00 80 1021.7
20201022164056 73 279 1.0 6.0 0.00 0.01 0.00 80 1021.8
20201022163553 73 242 2.0 6.0 0.00 0.01 0.00 81 1021.8
20201022163141 72 270 3.0 8.0 0.00 0.01 0.00 80 1021.9
20201022162555 72 229 3.0 7.0 0.00 0.01 0.00 82 1022.0
20201022162109 71 269 1.0 8.0 0.00 0.01 0.00 83 1022.1
20201022161557 71 272 3.0 8.0 0.00 0.01 0.00 84 1022.0
20201022161051 71 275 2.0 8.0 0.00 0.01 0.00 83 1022.1
20201022160556 71 274 1.0 5.0 0.00 0.01 0.00 83 1022.1
20201022160123 70 203 2.0 6.0 0.00 0.01 0.00 84 1022.2
20201022155614 70 213 2.0 11.0 0.00 0.01 0.00 83 1022.5
20201022155048 69 254 5.0 11.0 0.00 0.01 0.00 84 1022.5
20201022154610 68 203 2.0 8.0 0.00 0.01 0.00 87 1022.5
20201022154117 67 222 3.0 8.0 0.00 0.01 0.00 88 1022.5
20201022153546 67 217 1.0 5.0 0.00 0.01 0.00 87 1022.6
20201022153154 66 212 1.0 4.0 0.00 0.01 0.00 88 1022.5
20201022152539 67 227 1.0 10.0 0.00 0.01 0.00 87 1022.5
20201022152050 67 198 1.0 10.0 0.00 0.01 0.00 86 1022.4
20201022151654 66 258 2.0 8.0 0.00 0.01 0.00 87 1022.4
20201022151040 66 272 3.0 8.0 0.00 0.01 0.00 87 1022.5
20201022150537 65 253 3.0 7.0 0.00 0.01 0.00 90 1022.5
20201022150106 65 223 1.0 4.0 0.00 0.01 0.00 90 1022.5
20201022145542 64 217 1.0 5.0 0.00 0.01 0.00 91 1022.5
20201022145030 64 220 2.0 6.0 0.00 0.01 0.00 91 1022.6
20201022144600 64 216 0.0 6.0 0.00 0.01 0.00 92 1022.7
20201022144030 63 219 1.0 6.0 0.00 0.01 0.00 92 1022.6
20201022143527 63 205 2.0 5.0 0.00 0.01 0.00 92 1022.7
20201022143113 62 190 1.0 5.0 0.00 0.01 0.00 92 1022.7
20201022142529 62 246 0.0 5.0 0.00 0.01 0.00 92 1022.8
20201022142025 62 215 1.0 4.0 0.00 0.01 0.00 93 1022.8
20201022141539 62 196 2.0 5.0 0.00 0.01 0.00 93 1022.7
20201022141024 62 175 1.0 5.0 0.00 0.01 0.00 93 1022.7
20201022140525 62 238 1.0 6.0 0.00 0.01 0.00 94 1022.8
20201022140108 61 223 1.0 6.0 0.00 0.01 0.00 94 1022.7
20201022135945 60 252 1.0 7.0 0.00 0.01 0.00 94 1022.8
20201022135452 60 219 1.0 5.0 0.00 0.01 0.00 93 1022.8
20201022134613 59 234 1.0 4.0 0.00 0.01 0.00 93 1022.8
20201022134022 59 214 1.0 4.0 0.00 0.01 0.00 93 1022.7
20201022133521 59 210 0.0 7.0 0.00 0.01 0.00 93 1022.7
20201022133106 59 215 0.0 7.0 0.00 0.01 0.00 93 1022.7
20201022132523 59 213 0.0 3.0 0.00 0.01 0.00 94 1022.7
20201022132018 58 195 0.0 3.0 0.00 0.01 0.00 93 1022.6
20201022131543 58 220 1.0 3.0 0.00 0.01 0.00 93 1022.5
20201022131018 57 238 1.0 3.0 0.00 0.01 0.00 93 1022.5
20201022130514 57 213 1.0 4.0 0.00 0.01 0.00 93 1022.5
20201022130046 56 202 1.0 4.0 0.00 0.01 0.00 93 1022.5
20201022125516 56 252 1.0 4.0 0.00 0.01 0.00 93 1022.4
20201022125017 56 221 1.0 4.0 0.00 0.01 0.00 93 1022.4
20201022124544 56 215 1.0 4.0 0.00 0.01 0.00 92 1022.3
20201022124015 55 200 1.0 4.0 0.00 0.01 0.00 92 1022.1
20201022123515 55 202 0.0 3.0 0.00 0.01 0.00 92 1022.1
20201022123117 55 182 1.0 3.0 0.00 0.01 0.00 92 1022.1
20201022122534 55 173 0.0 2.0 0.00 0.01 0.00 92 1022.0
20201022122017 55 198 0.0 0.0 0.00 0.01 0.00 92 1022.0
20201022121536 55 194 0.0 0.0 0.00 0.01 0.00 92 1022.0
20201022121018 55 194 0.0 0.0 0.00 0.01 0.00 91 1022.0
20201022120519 55 195 0.0 0.0 0.00 0.01 0.00 91 1022.0
20201022120021 55 191 0.0 2.0 0.00 0.01 0.00 91 1021.8
20201022115517 55 193 0.0 2.0 0.00 0.01 0.00 91 1022.0
20201022115015 55 168 0.0 0.0 0.00 0.01 0.00 91 1021.8
20201022114517 55 168 0.0 0.0 0.00 0.01 0.00 91 1021.8
20201022114009 55 24 0.0 0.0 0.00 0.01 0.00 91 1021.8
20201022113511 55 24 0.0 0.0 0.00 0.01 0.00 91 1021.8
20201022113025 55 24 0.0 0.0 0.00 0.01 0.00 91 1021.9
20201022112520 55 24 0.0 0.0 0.00 0.01 0.00 91 1021.8
20201022112025 55 24 0.0 0.0 0.00 0.01 0.00 91 1021.8
20201022111527 55 24 0.0 0.0 0.00 0.01 0.00 91 1021.8
20201022111012 55 24 0.0 0.0 0.00 0.01 0.00 91 1021.8
20201022110513 55 24 0.0 0.0 0.00 0.01 0.00 91 1021.8
20201022110025 55 24 0.0 0.0 0.00 0.01 0.00 91 1021.8
20201022105520 55 24 0.0 0.0 0.00 0.01 0.00 91 1021.8
20201022104518 55 24 0.0 0.0 0.00 0.01 0.00 91 1021.7
20201022104016 55 24 0.0 0.0 0.00 0.01 0.00 91 1021.7
20201022103511 55 24 0.0 0.0 0.00 0.01 0.00 91 1021.6
20201022103024 55 24 0.0 0.0 0.00 0.01 0.00 91 1021.7
20201022102509 55 24 0.0 0.0 0.00 0.01 0.00 91 1021.6
20201022102008 55 24 0.0 0.0 0.00 0.01 0.00 91 1021.6
20201022101517 55 24 0.0 0.0 0.00 0.01 0.00 91 1021.6
20201022101018 55 24 0.0 0.0 0.00 0.01 0.00 91 1021.6
20201022100510 56 24 0.0 0.0 0.00 0.01 0.00 91 1021.5
20201022095604 56 24 0.0 0.0 0.00 0.02 0.00 91 1021.4
20201022095100 56 24 0.0 0.0 0.00 0.02 0.00 91 1021.4
20201022094632 56 24 0.0 0.0 0.00 0.02 0.00 91 1021.2
20201022094105 56 24 0.0 0.0 0.00 0.02 0.00 91 1021.4
20201022093559 56 24 0.0 0.0 0.00 0.02 0.00 91 1021.2
20201022093106 56 24 0.0 0.0 0.00 0.02 0.00 91 1021.1
20201022092558 56 24 0.0 0.0 0.00 0.02 0.00 91 1021.0
20201022092100 56 24 0.0 0.0 0.00 0.02 0.00 91 1021.1
20201022091806 56 24 0.0 0.0 0.00 0.02 0.00 91 1021.0
20201022091102 57 24 0.0 0.0 0.00 0.02 0.00 91 1021.0
20201022090559 57 24 0.0 0.0 0.00 0.02 0.00 91 1021.0
20201022090331 57 24 0.0 0.0 0.00 0.02 0.00 91 1021.0
20201022085555 57 24 0.0 0.0 0.00 0.02 0.00 91 1020.9
20201022085101 57 24 0.0 0.0 0.00 0.02 0.00 91 1020.9
20201022084634 57 24 0.0 0.0 0.00 0.02 0.00 91 1020.8
20201022084104 57 24 0.0 0.0 0.00 0.02 0.00 91 1021.0
20201022083555 57 24 0.0 0.0 0.00 0.02 0.00 91 1020.9
20201022083131 57 24 0.0 0.0 0.00 0.02 0.00 91 1021.0
20201022082556 57 24 0.0 0.0 0.00 0.02 0.00 91 1021.0
20201022082051 57 24 0.0 0.0 0.00 0.02 0.00 91 1020.9
20201022081843 57 24 0.0 0.0 0.00 0.02 0.00 91 1020.9
20201022081054 58 24 0.0 0.0 0.00 0.02 0.00 91 1020.9
20201022080600 58 24 0.0 0.0 0.00 0.02 0.00 91 1020.9
20201022080152 58 24 0.0 0.0 0.00 0.02 0.00 91 1020.9
20201022075550 58 24 0.0 0.0 0.00 0.02 0.00 91 1020.9
20201022075049 58 24 0.0 0.0 0.00 0.02 0.00 91 1020.9
20201022074635 58 24 0.0 0.0 0.00 0.02 0.00 91 1020.9
20201022074130 58 24 0.0 0.0 0.00 0.02 0.00 91 1020.9
20201022073548 58 24 0.0 0.0 0.00 0.02 0.00 91 1021.0
20201022073152 58 24 0.0 0.0 0.00 0.02 0.00 91 1020.9
20201022072554 58 24 0.0 0.0 0.00 0.02 0.00 91 1020.9
20201022072105 58 24 0.0 0.0 0.00 0.02 0.00 91 1021.0
20201022071626 58 24 0.0 0.0 0.00 0.02 0.00 91 1021.1
20201022071101 58 24 0.0 0.0 0.00 0.02 0.00 91 1021.1
20201022070546 58 24 0.0 0.0 0.00 0.02 0.00 91 1021.1
20201022070159 58 24 0.0 0.0 0.00 0.02 0.00 91 1021.0
20201022065545 58 24 0.0 0.0 0.00 0.02 0.00 91 1021.1
20201022065058 58 24 0.0 0.0 0.00 0.02 0.00 91 1021.1
20201022064855 58 24 0.0 0.0 0.00 0.02 0.00 91 1021.1
20201022064044 58 24 0.0 0.0 0.00 0.02 0.00 91 1021.1
20201022063543 58 24 0.0 0.0 0.00 0.02 0.00 91 1021.1
20201022063153 58 24 0.0 0.0 0.00 0.02 0.00 91 1021.1
20201022062544 58 24 0.0 0.0 0.00 0.02 0.00 91 1021.2
20201022062108 58 24 0.0 0.0 0.00 0.02 0.00 91 1021.2
20201022061633 58 24 0.0 0.0 0.00 0.02 0.00 91 1021.2
20201022061044 58 24 0.0 0.0 0.00 0.02 0.00 91 1021.2
20201022060544 58 24 0.0 0.0 0.00 0.02 0.00 91 1021.2
20201022060141 59 24 0.0 0.0 0.00 0.02 0.00 91 1021.2
20201022055545 59 24 0.0 0.0 0.00 0.02 0.00 91 1021.2
20201022055046 59 24 0.0 0.0 0.00 0.02 0.00 91 1021.3
20201022054632 59 24 0.0 0.0 0.00 0.02 0.00 91 1021.4
20201022054102 59 24 0.0 0.0 0.00 0.02 0.00 91 1021.3
20201022053553 59 24 0.0 0.0 0.00 0.02 0.00 91 1021.4
20201022053113 59 24 0.0 0.0 0.00 0.02 0.00 91 1021.3
20201022052542 59 24 0.0 0.0 0.00 0.02 0.00 91 1021.5
20201022052039 59 24 0.0 0.0 0.00 0.02 0.00 91 1021.4
20201022051617 59 24 0.0 0.0 0.00 0.02 0.00 91 1021.5
20201022051048 59 24 0.0 0.0 0.00 0.02 0.00 91 1021.5
20201022050536 60 24 0.0 0.0 0.00 0.02 0.00 90 1021.5
20201022050126 60 24 0.0 0.0 0.00 0.02 0.00 90 1021.6
20201022045536 60 24 0.0 0.0 0.00 0.02 0.00 91 1021.7
20201022045034 60 24 0.0 0.0 0.00 0.02 0.00 91 1021.7
20201022044619 60 24 0.0 0.0 0.00 0.02 0.00 91 1021.7
20201022044031 60 24 0.0 0.0 0.00 0.02 0.00 91 1021.8
20201022043534 60 24 0.0 0.0 0.00 0.02 0.00 91 1021.8
20201022043054 60 24 0.0 0.0 0.00 0.02 0.00 91 1022.0
20201022042531 60 24 0.0 0.0 0.00 0.02 0.00 91 1021.9
20201022042031 61 24 0.0 0.0 0.00 0.02 0.00 91 1021.9
20201022041540 61 24 0.0 0.0 0.00 0.02 0.00 91 1022.0
20201022041033 61 24 0.0 0.0 0.00 0.02 0.00 91 1022.0
20201022040547 61 24 0.0 0.0 0.00 0.02 0.00 91 1022.0
20201022040109 61 24 0.0 0.0 0.00 0.02 0.00 91 1022.1
20201022035530 61 24 0.0 0.0 0.00 0.02 0.02 91 1022.0
20201022035027 61 24 0.0 0.0 0.00 0.02 0.02 90 1022.0
20201022034624 61 24 0.0 0.0 0.00 0.02 0.02 90 1022.1
20201022034032 61 24 0.0 0.0 0.00 0.02 0.02 90 1022.1
20201022033527 61 24 0.0 0.0 0.00 0.02 0.02 90 1022.2
20201022033035 61 24 0.0 0.0 0.00 0.02 0.02 90 1022.3
20201022032526 61 24 0.0 0.0 0.00 0.02 0.02 90 1022.2
20201022032030 61 24 0.0 0.0 0.00 0.02 0.02 90 1022.3
20201022031530 61 24 0.0 0.0 0.00 0.02 0.02 90 1022.5
20201022031036 61 24 0.0 0.0 0.00 0.02 0.02 90 1022.5
20201022030536 61 24 0.0 0.0 0.00 0.02 0.02 90 1022.4
20201022030114 61 24 0.0 0.0 0.00 0.02 0.02 90 1022.3
20201022025534 61 24 0.0 0.0 0.00 0.02 0.02 90 1022.4
20201022025033 61 24 0.0 0.0 0.00 0.02 0.02 90 1022.5